This is the latest recevied weather packets stored in our database for station/object SQ6RR-11. If no packets are shown the sender has not sent any weather packets the latest 10 day(s).
| Time | Temp. | Humidity | Pressure | Rain* | Wind** | Luminosity | Snow |
|---|---|---|---|---|---|---|---|
| 1778159523 | 10.56° C | 99% | 1014.2 hPa | 0 mm | - | - | - |
| 1778159244 | 11.11° C | 99% | 1014.3 hPa | 0 mm | - | - | - |
| 1778158966 | 11.11° C | 99% | 1014.3 hPa | 0 mm | - | - | - |
| 1778158683 | 11.11° C | 99% | 1014.2 hPa | 0 mm | - | - | - |
| 1778158426 | 10.56° C | 99% | 1014.1 hPa | 0 mm | - | - | - |
| 1778158171 | 10.56° C | 99% | 1014.1 hPa | 0 mm | - | - | - |
| 1778157893 | 11.11° C | 99% | 1014.1 hPa | 0 mm | - | - | - |
| 1778157617 | 11.11° C | 99% | 1014.1 hPa | 0 mm | - | - | - |
| 1778157363 | 11.11° C | 99% | 1014.1 hPa | 0 mm | - | - | - |
| 1778157093 | 11.67° C | 99% | 1014 hPa | 0 mm | - | - | - |
| 1778156827 | 11.11° C | 99% | 1014 hPa | 0 mm | - | - | - |
| 1778156552 | 11.11° C | 99% | 1014 hPa | 0 mm | - | - | - |
| 1778156281 | 11.11° C | 99% | 1013.8 hPa | 0 mm | - | - | - |
| 1778156007 | 10.56° C | 99% | 1013.7 hPa | 0 mm | - | - | - |
| 1778155738 | 11.11° C | 99% | 1013.8 hPa | 0 mm | - | - | - |
| 1778155484 | 11.67° C | 99% | 1013.5 hPa | 0 mm | - | - | - |
| 1778155226 | 11.67° C | 99% | 1013.5 hPa | 0 mm | - | - | - |
| 1778154957 | 11.67° C | 99% | 1013.7 hPa | 0 mm | - | - | - |
| 1778154698 | 12.78° C | 99% | 1013.6 hPa | 0 mm | - | - | - |
| 1778154407 | 11.67° C | 99% | 1013.5 hPa | 0 mm | - | - | - |
| 1778154157 | 11.67° C | 99% | 1013.5 hPa | 0 mm | - | - | - |
| 1778153889 | 11.67° C | 99% | 1013.5 hPa | 0 mm | - | - | - |
| 1778153610 | 11.11° C | 99% | 1013.4 hPa | 0 mm | - | - | - |
| 1778153323 | 11.67° C | 99% | 1013.4 hPa | 0 mm | - | - | - |
| 1778153057 | 11.67° C | 99% | 1013.4 hPa | 0 mm | - | - | - |
* Rain latest hour (hover to see other rain measurements)
** Current wind speed in m/s (hover to see current wind gust speed)